Regional Weather Roundup
Issued by NWS Sterling, VA

Home | Current Version | Previous Version | Text Only | Print | Product List | Glossary Off
Versions: 1 2 3 4 5 6 7 8 9 10 11 12 13 14 15 16 17 18 19 20 21 22 23 24 25 26 27

000
ASUS41 KLWX 251711
RWRLWX

REGIONAL WEATHER ROUNDUP
NATIONAL WEATHER SERVICE BALTIMORE MD/WASHINGTON DC
100 PM EDT THU MAY 25 2017

Note: "FAIR" indicates few or no clouds below 12,000 feet
with no significant weather and/or obstructions to visibility.
 TC=TEMPERATURE CELSIUS

 * =Non NWS site. Station does not report precipitation (e.g. rain,
    snow, etc.), thunder, or fog.

DCZ001-MDZ009-015-VAZ040>042-051-053>054-251800-
WASHINGTON METRO

CITY           SKY/WX    TMP DP  RH WIND       PRES   REMARKS
WASHINGTON NAT PTSUNNY   70  61  73 SW9       29.51F
DULLES         CLOUDY    68  59  73 VRB5      29.51F
QUANTICO       PTSUNNY   69  62  78 SW7       29.52F
COLLEGE PARK*  PTSUNNY   67  60  76 W5        29.50F
LEESBURG*      CLOUDY    68  61  77 W5        29.52F
MANASSAS*      CLOUDY    69  60  73 W6        29.52S
GAITHERSBURG*  CLOUDY    66  60  81 W5        29.52F

$$

MDZ006>007-011-014-251800-
BALTIMORE METRO

CITY           SKY/WX    TMP DP  RH WIND       PRES   REMARKS
BWI AIRPORT    PTSUNNY   68  64  87 W8        29.50F
MD SCIENCE CTR   N/A     67  63  87 MISG      29.52F
MARTIN STATE   PTSUNNY   66  66 100 W5        29.52S
ANNAPOLIS      PTSUNNY   70  63  78 VRB6      29.50S
FORT MEADE*    PTSUNNY   66  63  88 W9        29.52F

$$

MDZ012-015-019>023-251800-
MARYLAND EASTERN SHORE

CITY           SKY/WX    TMP DP  RH WIND       PRES   REMARKS
OCEAN CITY     CLOUDY    74  68  81 SW12      29.53F
SALISBURY      MOSUNNY   78  61  55 SW15G23   29.51F
BAY BRIDGE AP* PTSUNNY   70  63  78 W7        29.51S
CAMBRIDGE*     SUNNY     75  63  64 SW10      29.51S
EASTON*        MOSUNNY   75  63  64 W10G18    29.54S

$$

MDZ017>025-251800-
SOUTHERN MARYLAND

CITY           SKY/WX    TMP DP  RH WIND       PRES   REMARKS
PATUXENT RIVER PTSUNNY   75  65  70 S12       29.51S
ST INIGOES     MOSUNNY   76  63  64 SW12      29.50F
LEONARDTOWN*   MOSUNNY   72  61  68 SW8       29.53S

$$

MDZ003>005-251800-
NORTH CENTRAL MARYLAND

CITY           SKY/WX    TMP DP  RH WIND       PRES   REMARKS
FREDERICK*     CLOUDY    66  64  94 N5        29.55S
HAGERSTOWN APT CLOUDY    64  57  78 VRB5      29.52S
WESTMINSTER*   CLOUDY    66  61  82 CALM      29.52S

$$

MDZ501>502-251800-
WESTERN MARYLAND

CITY           SKY/WX    TMP DP  RH WIND       PRES   REMARKS
OAKLAND*       CLOUDY    50  50 100 SW3       29.55F FOG
CUMBERLAND*    CLOUDY    61  57  88 CALM      29.56S

$$

VAZ025>031-251800-
SHENANDOAH VALLEY

CITY           SKY/WX    TMP DP  RH WIND       PRES   REMARKS
WINCHESTER*    CLOUDY    63  55  77 CALM      29.51F
FRONT ROYAL*   CLOUDY    66  59  77 CALM      29.49F
LURAY*         CLOUDY    68  59  73 SE3       29.49F
NEW MARKET*    PTSUNNY   68  58  69 CALM      29.48F
STAUNTON*      CLOUDY    69  55  61 SW7       29.51F
WAYNESBORO*    PTSUNNY   65  57  75 S8        29.50F

$$

WVZ021-048>050-054>055-251800-
EASTERN WEST VIRGINIA PANHANDLE

CITY           SKY/WX    TMP DP  RH WIND       PRES   REMARKS
MARTINSBURG    CLOUDY    63  56  78 W3        29.51F
PETERSBURG*    PTSUNNY   64  61  88 CALM      29.51F

$$

VAZ036>039-050-251800-
CENTRAL FOOTHILLS

CITY           SKY/WX    TMP DP  RH WIND       PRES   REMARKS
CHARLOTTESVILL MOSUNNY   72  61  68 VRB7      29.49F
CULPEPER*      CLOUDY    70  61  71 S7        29.51F
ORANGE*        PTSUNNY   68  61  77 CALM      29.50F
GORDONSVILLE*  PTSUNNY   70  61  73 SW8       29.50F
WARRENTON*     CLOUDY    70  57  63 SW6       29.51S

$$

VAZ055>057-251800-
NORTH AND CENTRAL PIEDMONT

CITY           SKY/WX    TMP DP  RH WIND       PRES   REMARKS
FREDERICKSBRG* CLOUDY    69  61  77 SW6       29.51F
STAFFORD*      CLOUDY    67  61  81 SW8       29.56S

$$

NCZ024-NYZ072-PAZ021-071-VAZ022-071-251800-
OTHER REGIONAL OBSERVATIONS

CITY           SKY/WX    TMP DP  RH WIND       PRES   REMARKS
NEW YORK CITY  LGT RAIN  57  57 100 E9        29.62F FOG
PHILADELPHIA   CLOUDY    61  59  93 NE7       29.54F FOG
PITTSBURGH     CLOUDY    63  57  81 S9        29.48S
ROANOKE        PTSUNNY   69  50  50 W12       29.54F
RICHMOND       PTSUNNY   73  61  65 SW10      29.51F
RALEIGH        MOSUNNY   73  57  57 SW16G28   29.56F

$$

ANZ530>537-251800-
MARINE OBSERVATIONS

STATION/POSITION TIME  TEMP    WIND        PRES
                       AIR SEA DIR/SP/G
                 (UTC) (F)     (DEG/KT/KT) (MB)
THOMAS PT LIGHT  1700   67 64  250/  6/  6   N/A
BALT KEY BRIDGE  1648   64     270/  7/  8  999.0S
COVE POINT       1648   71     250/ 11/ 15  999.9F
LEWISETTA        1648   74 67  260/ 10/ 12  999.0F
SOLOMONS ISLAND  1648   72 66  230/  6/ 10   N/A
PINEY POINT      1648          320/  4/  4   N/A

$$





USA.gov is the U.S. government's official web portal to all federal, state and local government web resources and services.